Location: ??????????
(44.2167°N, 135.5333°E)
Time: 15:07:14
(UTC+00:00)

Cosmos 1741 Rocket - Pass Details

Date: 15 June 2025
Orbit: 757 x 778 km, 74.0° (Epoch: 15 July)

Event Time Altitude Azimuth Distance (km) Brightness Sun altitude
Exits shadow 15:28:50 49° 162° (SSE) 991 4.2 -22.1°
Maximum altitude 15:30:02 64° 107° (ESE) 857 4.1 -22.1°
Drops below altitude 10° 15:35:17 10° 26° (NNE) 2,338 7.5 -21.9°
Sets 15:37:42 0° 24° (NNE) 3,271 8.6 -21.9°
